• In Kazakhstan
  • List of Countries
  • For 7 days
  • Water Temperature
  • Satellite Maps
  • Weather Map
  • News
  • Weather Widgets
  • user-avatar
    Login

    Hourly Weather Bannur

    Today, 21 November, Tuesday

    Time Temperature Precipitation Wind Pressure Humidity
    00:00 +23°C° 0.1 mm 1 mps 698 mmHg 89%
    01:00 +22°C° 0.1 mm 1 mps 698 mmHg 90%
    02:00 +22°C° 0.1 mm 1 mps 698 mmHg 92%
    03:00 +22°C° 0 mm 1 mps 698 mmHg 93%
    04:00 +22°C° 0 mm 1 mps 698 mmHg 93%
    05:00 +21°C° 0 mm 1 mps 697 mmHg 94%
    06:00 +23°C° 0 mm 1 mps 698 mmHg 90%
    07:00 +24°C° 0 mm 2 mps 699 mmHg 86%
    08:00 +25°C° 0 mm 2 mps 699 mmHg 82%
    09:00 +26°C° 0 mm 2 mps 699 mmHg 75%
    10:00 +28°C° 0 mm 3 mps 699 mmHg 69%
    11:00 +29°C° 0 mm 3 mps 699 mmHg 63%
    12:00 +29°C° 0 mm 3 mps 698 mmHg 62%
    13:00 +29°C° 0 mm 3 mps 698 mmHg 61%
    14:00 +30°C° 0 mm 3 mps 697 mmHg 61%
    15:00 +29°C° 0.1 mm 3 mps 697 mmHg 65%
    16:00 +28°C° 0.1 mm 2 mps 697 mmHg 69%
    17:00 +27°C° 0.1 mm 2 mps 697 mmHg 73%
    18:00 +26°C° 0 mm 2 mps 697 mmHg 76%
    19:00 +25°C° 0 mm 2 mps 697 mmHg 79%
    20:00 +24°C° 0 mm 2 mps 698 mmHg 82%
    21:00 +24°C° 0 mm 2 mps 698 mmHg 85%
    22:00 +23°C° 0 mm 2 mps 698 mmHg 87%
    23:00 +23°C° 0 mm 2 mps 698 mmHg 89%

    Tomorrow, 22 November, Wednesday

    Time Temperature Precipitation Wind Pressure Humidity
    00:00 +23°C° 0 mm 2 mps 697 mmHg 91%
    01:00 +21°C° 0 mm 2 mps 697 mmHg 93%
    02:00 +21°C° 0 mm 2 mps 697 mmHg 94%
    03:00 +21°C° 0 mm 2 mps 697 mmHg 95%
    04:00 +21°C° 0 mm 2 mps 697 mmHg 96%
    05:00 +20°C° 0 mm 2 mps 697 mmHg 96%
    06:00 +21°C° 0 mm 2 mps 697 mmHg 92%
    07:00 +23°C° 0 mm 2 mps 698 mmHg 88%
    08:00 +24°C° 0 mm 3 mps 698 mmHg 83%
    09:00 +26°C° 0 mm 3 mps 698 mmHg 77%
    10:00 +27°C° 0 mm 3 mps 698 mmHg 70%
    11:00 +29°C° 0 mm 3 mps 699 mmHg 63%
    12:00 +29°C° 0.1 mm 3 mps 698 mmHg 62%
    13:00 +29°C° 0.1 mm 3 mps 697 mmHg 61%
    14:00 +30°C° 0.1 mm 3 mps 696 mmHg 61%
    15:00 +29°C° 0.4 mm 2 mps 696 mmHg 66%
    16:00 +28°C° 0.4 mm 2 mps 696 mmHg 72%
    17:00 +27°C° 0.4 mm 2 mps 696 mmHg 77%
    18:00 +26°C° 0.3 mm 2 mps 697 mmHg 81%
    19:00 +25°C° 0.3 mm 2 mps 697 mmHg 84%
    20:00 +23°C° 0.3 mm 2 mps 698 mmHg 88%
    21:00 +23°C° 0.2 mm 2 mps 698 mmHg 90%
    22:00 +23°C° 0.2 mm 2 mps 698 mmHg 91%
    23:00 +21°C° 0.2 mm 2 mps 698 mmHg 93%

    Day after tomorrow, 23 November, Thursday

    Time Temperature Precipitation Wind Pressure Humidity
    00:00 +21°C° 0 mm 2 mps 698 mmHg 94%
    01:00 +20°C° 0 mm 2 mps 697 mmHg 95%
    02:00 +20°C° 0 mm 2 mps 697 mmHg 96%
    03:00 +20°C° 0 mm 2 mps 697 mmHg 96%
    04:00 +19°C° 0 mm 2 mps 697 mmHg 96%
    05:00 +19°C° 0 mm 2 mps 697 mmHg 96%
    06:00 +20°C° 0 mm 2 mps 697 mmHg 91%
    07:00 +21°C° 0 mm 2 mps 698 mmHg 87%
    08:00 +23°C° 0 mm 2 mps 698 mmHg 82%
    09:00 +25°C° 0 mm 3 mps 698 mmHg 73%
    10:00 +26°C° 0 mm 3 mps 699 mmHg 64%
    11:00 +28°C° 0 mm 3 mps 699 mmHg 56%
    12:00 +29°C° 0 mm 3 mps 698 mmHg 54%
    13:00 +29°C° 0 mm 3 mps 697 mmHg 53%
    14:00 +30°C° 0 mm 3 mps 697 mmHg 51%
    15:00 +29°C° 0 mm 3 mps 697 mmHg 57%
    16:00 +28°C° 0 mm 3 mps 697 mmHg 63%
    17:00 +26°C° 0 mm 2 mps 697 mmHg 68%
    18:00 +25°C° 0 mm 2 mps 697 mmHg 72%
    19:00 +24°C° 0 mm 2 mps 698 mmHg 75%
    20:00 +23°C° 0 mm 2 mps 699 mmHg 78%
    21:00 +23°C° 0 mm 2 mps 699 mmHg 81%
    22:00 +21°C° 0 mm 2 mps 699 mmHg 83%
    23:00 +21°C° 0 mm 2 mps 699 mmHg 86%

    24 November, Friday

    Time Temperature Precipitation Wind Pressure Humidity
    00:00 +20°C° 0 mm 2 mps 698 mmHg 88%
    01:00 +20°C° 0 mm 2 mps 698 mmHg 90%
    02:00 +21°C° 0 mm 1 mps 697 mmHg 92%
    03:00 +21°C° 0 mm 1 mps 697 mmHg 93%
    04:00 +20°C° 0 mm 1 mps 697 mmHg 93%
    05:00 +20°C° 0 mm 1 mps 697 mmHg 94%
    06:00 +21°C° 0 mm 1 mps 698 mmHg 89%
    07:00 +23°C° 0 mm 2 mps 699 mmHg 83%
    08:00 +24°C° 0 mm 2 mps 700 mmHg 78%
    09:00 +25°C° 0 mm 2 mps 700 mmHg 72%
    10:00 +27°C° 0 mm 3 mps 700 mmHg 66%
    11:00 +28°C° 0 mm 4 mps 700 mmHg 60%
    12:00 +29°C° 0 mm 4 mps 699 mmHg 59%
    13:00 +29°C° 0 mm 4 mps 698 mmHg 58%
    14:00 +30°C° 0 mm 4 mps 697 mmHg 57%
    15:00 +29°C° 0 mm 3 mps 697 mmHg 61%
    16:00 +28°C° 0 mm 3 mps 697 mmHg 66%
    17:00 +27°C° 0 mm 2 mps 697 mmHg 71%
    18:00 +26°C° 0 mm 2 mps 698 mmHg 75%
    19:00 +25°C° 0 mm 2 mps 698 mmHg 78%
    20:00 +23°C° 0 mm 2 mps 699 mmHg 82%
    21:00 +23°C° 0 mm 2 mps 699 mmHg 84%
    22:00 +23°C° 0 mm 2 mps 699 mmHg 87%
    23:00 +21°C° 0 mm 2 mps 699 mmHg 89%

    25 November, Saturday

    Time Temperature Precipitation Wind Pressure Humidity
    00:00 +21°C° 0 mm 2 mps 698 mmHg 91%
    01:00 +21°C° 0 mm 2 mps 698 mmHg 93%
    02:00 +20°C° 0 mm 2 mps 697 mmHg 95%
    03:00 +20°C° 0 mm 2 mps 697 mmHg 95%
    04:00 +20°C° 0 mm 2 mps 698 mmHg 96%
    05:00 +19°C° 0 mm 2 mps 698 mmHg 96%
    06:00 +20°C° 0 mm 2 mps 698 mmHg 90%
    07:00 +23°C° 0 mm 2 mps 699 mmHg 85%
    08:00 +24°C° 0 mm 3 mps 700 mmHg 79%
    09:00 +25°C° 0 mm 3 mps 700 mmHg 71%
    10:00 +27°C° 0 mm 4 mps 700 mmHg 64%
    11:00 +28°C° 0 mm 4 mps 700 mmHg 56%
    12:00 +28°C° 0 mm 4 mps 699 mmHg 54%
    13:00 +29°C° 0 mm 4 mps 698 mmHg 52%
    14:00 +29°C° 0 mm 4 mps 697 mmHg 49%
    15:00 +28°C° 0 mm 3 mps 697 mmHg 55%
    16:00 +27°C° 0 mm 3 mps 698 mmHg 61%
    17:00 +26°C° 0 mm 2 mps 698 mmHg 66%
    18:00 +25°C° 0 mm 2 mps 698 mmHg 68%
    19:00 +24°C° 0 mm 2 mps 699 mmHg 70%
    20:00 +23°C° 0 mm 2 mps 700 mmHg 73%
    21:00 +23°C° 0 mm 2 mps 699 mmHg 75%
    22:00 +23°C° 0 mm 2 mps 699 mmHg 77%
    23:00 +21°C° 0 mm 2 mps 699 mmHg 79%

    26 November, Sunday

    Time Temperature Precipitation Wind Pressure Humidity
    00:00 +21°C° 0 mm 2 mps 699 mmHg 80%
    01:00 +20°C° 0 mm 2 mps 698 mmHg 82%
    02:00 +20°C° 0 mm 2 mps 698 mmHg 84%
    03:00 +20°C° 0 mm 2 mps 698 mmHg 83%
    04:00 +20°C° 0 mm 2 mps 698 mmHg 82%
    05:00 +20°C° 0 mm 2 mps 698 mmHg 82%
    06:00 +20°C° 0 mm 2 mps 699 mmHg 78%
    07:00 +21°C° 0 mm 2 mps 699 mmHg 74%
    08:00 +23°C° 0 mm 2 mps 700 mmHg 70%
    09:00 +24°C° 0 mm 3 mps 700 mmHg 68%
    10:00 +25°C° 0 mm 3 mps 700 mmHg 66%
    11:00 +27°C° 0 mm 4 mps 700 mmHg 65%
    12:00 +27°C° 0 mm 4 mps 699 mmHg 65%
    13:00 +27°C° 0 mm 3 mps 698 mmHg 66%
    14:00 +27°C° 0 mm 3 mps 697 mmHg 67%
    15:00 +27°C° 0.1 mm 3 mps 697 mmHg 71%
    16:00 +26°C° 0.1 mm 2 mps 698 mmHg 75%
    17:00 +25°C° 0.1 mm 2 mps 698 mmHg 79%
    18:00 +25°C° 0.1 mm 2 mps 698 mmHg 82%
    19:00 +24°C° 0.1 mm 2 mps 699 mmHg 84%
    20:00 +23°C° 0.1 mm 2 mps 699 mmHg 87%
    21:00 +23°C° 0.1 mm 2 mps 699 mmHg 89%
    22:00 +23°C° 0.1 mm 2 mps 699 mmHg 90%
    23:00 +21°C° 0.1 mm 2 mps 699 mmHg 92%
    Show more